{"data":{"norad_id":52744,"epoch":"2026-09-20T22:02:22.942176Z","epoch_age_seconds":95510,"freshness":"FRESH","line1":"1 52744U 22057N   26263.91832109  .00004691  00000+0  13902-3 0  9997","line2":"2 52744  97.6812  55.0022 0007549 132.0361 228.1525 15.35364393240229","mean_motion":15.35364393,"eccentricity":0.0007549,"inclination_deg":97.6812,"raan_deg":55.0022,"arg_perigee_deg":132.0361,"mean_anomaly_deg":228.1525,"bstar":0.00013902,"rev_number":24022,"period_min":93.788810432573,"perigee_km":454.67637383719,"apogee_km":465.00034903789,"semimajor_km":6837.9753614375,"source":"CELESTRAK","updated_at":"2026-09-21T09:00:08.715161Z"}}